Regional Weather Roundup
Issued by NWS

Home | Current Version | Previous Version | Graphics & Text | Print | Product List | Glossary On
Versions: 1 2 3 4 5 6 7 8 9 10 11 12 13 14 15 16 17 18 19 20 21 22 23 24 25 26 27 28 29 30 31 32 33 34 35 36 37 38 39 40 41 42 43 44 45 46 47 48 49 50
000
ASUS43 KLOT 160908
RWRIL

ILLINOIS REGIONAL WEATHER ROUNDUP
NATIONAL WEATHER SERVICE CHICAGO/ROMEOVILLE IL
300 AM CST MON JAN 16 2017

NOTE: "FAIR" INDICATES FEW OR NO CLOUDS BELOW 12,000 FEET WITH NO
SIGNIFICANT WEATHER AND/OR OBSTRUCTIONS TO VISIBILITY.

* THESE STATIONS ARE NOT UNDER NWS QUALITY CONTROL. THEY ALSO MAY NOT
  REPORT WEATHER SUCH AS PRECIPITATION OR FOG.

ILZ001-002-007-009-015-016-024-161000-
NORTHWEST ILLINOIS

CITY           SKY/WX    TMP DP  RH WIND       PRES   REMARKS
MOLINE         CLOUDY    33  27  78 E7        30.23F HAZE    WCI  27
STERLING*      MIX PCPN  31  29  92 E6        30.27R FOG     WCI  25
SAVANNA*       MIX PCPN  32  29  91 E5        30.26F WCI  27
$$

ILZ003-004-008-010-011-017-018-161000-
NORTH CENTRAL ILLINOIS

CITY           SKY/WX    TMP DP  RH WIND       PRES   REMARKS
ROCKFORD       FRZ RAIN  31  27  85 S3        30.29R FOG
FREEPORT*      MIX PCPN  30  27  90 SE3       30.29R
ROCHELLE*      LGT RAIN  32  30  92 E3        30.28R
DE KALB*       MIX PCPN  32  29  88 SE5       30.27S WCI  27
$$

ILZ005-006-012>014-019>023-161000-
NORTHEAST ILLINOIS

CITY           SKY/WX    TMP DP  RH WIND       PRES   REMARKS
CHICAGO-OHARE  LGTSLEET  32  27  81 CALM      30.27S
CHICAGO-MIDWAY DRIZZLE   34  26  72 SE5       30.28S WCI  30
AURORA         CLOUDY    33  28  81 CALM      30.28S HAZE
LANSING*       MIX PCPN  32  30  93 SE3       30.29S
JOLIET*        CLOUDY    34  30  86 SE5       30.29S WCI  30
WAUKEGAN       PTCLDY    26  22  84 CALM      30.27F FOG
DUPAGE AIRPORT MIX PCPN  32  26  78 SE5       30.27R WCI  27
KANKAKEE*      CLOUDY    33  30  89 CALM      30.29R
WHEELING       CLOUDY    30  25  81 CALM      30.29F
MORRIS*        CLOUDY    33  30  90 CALM      30.27F
ROMEOVILLE*    CLOUDY    32  31  96 SE3       30.28S
NORTHERLY ISL    N/A     32  29  89 SE1         N/A
$$

LMZ740>746-161000-
SOUTHERN LAKE MICHIGAN

STATION/POSITION SKY/WX   TEMP    WIND        PRES    VSBY  WAVE
                          AIR SEA DIR/SP/G                  HT/PER
                          (F)     (DEG/KT/KT) (MB)    (MI)  (FT/S)
HARRISON CRIB              33     170/  7/  7   N/A
BURNHAM HARBOR             31     110/  1/  3   N/A
CALUMET HARBOR             33     170/  3/  4 1025.2R
BURNS HARBOR               33     150/  6/  9 1026.1S
MICHIGAN CITY              32     120/  6/  7   N/A
$$

ILZ025>027-034>036-040-047-049-050-058-095>099-161000-
WEST-CENTRAL ILLINOIS

CITY           SKY/WX    TMP DP  RH WIND       PRES   REMARKS
QUINCY         MIX PCPN  32  32 100 E9        30.16F VSB 1/2 WCI  24
GALESBURG*     CLOUDY    32  31  96 E6        30.21F FOG     WCI  26
MACOMB*        FOG       32  32 100 E5        30.23F VSB 3/4 WCI  27
JACKSONVILLE*  CLOUDY    33  32  98 E6        30.19F FOG     WCI  27
PITTSFIELD*    FOG       33  33 100 NE6       30.18F VSB 1/4 WCI  27
$$

ILZ028>032-037-038-041>044-048-051>054-059>061-161000-
CENTRAL ILLINOIS

CITY           SKY/WX    TMP DP  RH WIND       PRES   REMARKS
PONTIAC        CLOUDY    33  33 100 E5        30.27F FOG     WCI  29
BLOOMINGTON    CLOUDY    32  31  96 E7        30.24F FOG     WCI  26
DECATUR        CLOUDY    33  33 100 E7        30.23S FOG     WCI  27
PEORIA         CLOUDY    34  32  92 E6        30.23F FOG     WCI  29
LACON*         CLOUDY    32  32  97 CALM      30.25S FOG
LINCOLN*       FOG       34  34 100 E8        30.22F VSB 1   WCI  27
SPRINGFIELD    CLOUDY    35  33  92 E9        30.21F FOG     WCI  28
TAYLORVILLE    CLOUDY    34  33  98 E6        30.22S FOG     WCI  29
$$

ILZ033-039-045-046-055>057-062-063-161000-
EAST-CENTRAL ILLINOIS

CITY           SKY/WX    TMP DP  RH WIND       PRES   REMARKS
CHAMPAIGN      CLOUDY    34  31  88 E8        30.25R FOG     WCI  27
RANTOUL*       CLOUDY    35  33  95 E5        30.24F FOG     WCI  31
MATTOON        CLOUDY    36  35  96 SE6       30.23S FOG     WCI  31
PARIS*         CLOUDY    34  34  99 E3        30.26S FOG
$$

ILZ079-100>102-161000-
SOUTHWEST ILLINOIS

CITY           SKY/WX    TMP DP  RH WIND       PRES   REMARKS
ALTON          FOG       37  37 100 E5        30.19F VSB 1/2 WCI  33
BELLEVILLE     FOG       38  38 100 E3        30.17F VSB 1/2
CAHOKIA*       FOG       39  38  96 SE3       30.19S VSB 1
SPARTA*        CLOUDY    38  38  99 E6        30.19F FOG     WCI  34
$$

ILZ064>066-069>071-074>076-080>082-084>086-088>090-092>094-161000-
SOUTH-CENTRAL ILLINOIS

CITY           SKY/WX    TMP DP  RH WIND       PRES   REMARKS
CARBONDALE     CLOUDY    40  40 100 NE5       30.20S FOG
CAIRO*         FOG       42  42 100 E5        30.19S VSB 1/2
EFFINGHAM*     CLOUDY    38  38 100 E6        30.25S FOG     WCI  33
MARION         CLOUDY    43  41  93 CALM      30.20F FOG
MT. VERNON     CLOUDY    40  39  97 E5        30.21F FOG
CENTRALIA*     FOG       39  39 100 E5        30.20F VSB 3/4
SALEM*         FOG       40  38  95 E5        30.21F VSB 1/2
METROPOLIS*    FOG       43  43  99 CALM      30.20F VSB 1/4
$$

ILZ067-068-072-073-078-083-087-091-161000-
SOUTHEAST ILLINOIS

CITY           SKY/WX    TMP DP  RH WIND       PRES   REMARKS
LAWRENCEVILLE  CLOUDY    39  39 100 E5        30.25F FOG
FLORA*         FOG       40  39  98 E5        30.23F VSB 1/2
FAIRFIELD*     FOG       40  40 100 E3        30.21F VSB 3/4
HARRISBURG*    CLOUDY    41  41 100 E7        30.21F FOG
ROBINSON*      CLOUDY    37  37  97 E5        30.26F FOG     WCI  34
CARMI*         CLOUDY    41  41  99 E5        30.21F FOG
$$

ABBREVIATIONS USED IN REMARKS
   TC - TEMPERATURE IN CELSIUS
  WCI - WIND CHILL INDEX
   HX - HEAT INDEX
  VSB - VISIBILITY
$$





USA.gov is the U.S. government's official web portal to all federal, state and local government web resources and services.